Volver al catálogo

DELTA 1 DEB

ActivoSSO
NORAD 35535·DEBRIS·🇺🇸 United States

Lanzado Jun 12, 1975 desde Vandenberg Space Force Base

Loading…

Próximos Pases (próximas 24 horas)

TLE

ActualizadoSource: Space-Track

Época: Sep 13, 2026, 04:34 UTC

1 35535U 75052LH  26256.19056858  .00000003  00000-0  40317-4 0  9995
2 35535  98.8386 238.2112 0095348  37.9252 322.8567 13.79353281178013

Sigue DELTA 1 DEB en tiempo real con AllMySat

Download on the App Store